Location: Pedholt
(56.0260°N, 10.2097°E)
Time: 18:25:35
(UTC+00:00)

A-11 Canister half - Pass Details

Date: 06 August 2021
Orbit: 1515 x 1685 km, 47.2° (Epoch: 20 September)

Event Time Altitude Azimuth Distance (km) Brightness Sun altitude
Rises 21:07:55 0° 282° (WNW) 4,884 12.4 -12.0°
Reaches altitude 10° 21:11:41 10° 271° (W) 3,915 11.6 -12.3°
Maximum altitude 21:19:25 26° 220° (SW) 2,855 10.2 -12.9°
Enters shadow 21:26:12 13° 173° (S) 3,710 10.4 -13.3°
Drops below altitude 10° 21:27:14 10° 169° (S) 3,944 - -13.4°
Sets 21:31:04 0° 158° (SSE) 4,926 - -13.7°
